| time (UTC) | temp F | wind direction | speed knots | gust knots | rain 1hr in | rain 24hr in | rain mn in | humidity % | barometer mb |
| 20260902194523 | 63 | 153 | 0.0 | 0.9 | 0.00 | 0.06 | 0.03 | 100 | 1019.9 |
| 20260902193021 | 63 | 245 | 0.0 | 0.9 | 0.01 | 0.06 | 0.03 | 100 | 1020.2 |
| 20260902191528 | 63 | 288 | 0.0 | 0.0 | 0.02 | 0.06 | 0.03 | 100 | 1020.5 |
| 20260902190018 | 63 | 292 | 0.0 | 0.0 | 0.02 | 0.06 | 0.03 | 100 | 1020.8 |
| 20260902184518 | 62 | 292 | 0.0 | 0.0 | 0.02 | 0.06 | 0.03 | 100 | 1020.9 |
| 20260902183021 | 62 | 292 | 0.0 | 0.9 | 0.01 | 0.05 | 0.02 | 100 | 1021.1 |
| 20260902181516 | 62 | 323 | 0.0 | 1.7 | 0.01 | 0.04 | 0.01 | 100 | 1021.6 |
| 20260902180015 | 62 | 141 | 0.0 | 0.0 | 0.01 | 0.04 | 0.01 | 100 | 1021.0 |
| 20260902174517 | 62 | 141 | 0.0 | 0.9 | 0.01 | 0.04 | 0.01 | 100 | 1021.1 |
| 20260902173017 | 62 | 141 | 0.0 | 0.0 | 0.01 | 0.04 | 0.01 | 100 | 1020.9 |
| 20260902171514 | 62 | 153 | 0.0 | 0.0 | 0.00 | 0.03 | 0.00 | 100 | 1020.7 |
| 20260902170015 | 62 | 163 | 0.0 | 0.9 | 0.00 | 0.03 | 0.00 | 100 | 1021.0 |
| 20260902164512 | 62 | 162 | 0.0 | 0.9 | 0.00 | 0.03 | 0.00 | 100 | 1021.0 |
| 20260902163012 | 62 | 158 | 0.0 | 1.7 | 0.00 | 0.03 | 0.00 | 100 | 1020.8 |
| 20260902161518 | 62 | 150 | 0.0 | 0.9 | 0.00 | 0.03 | 0.00 | 100 | 1021.1 |
| 20260902160012 | 62 | 152 | 0.0 | 0.0 | 0.00 | 0.03 | 0.00 | 100 | 1021.4 |
| 20260902154523 | 62 | 152 | 0.0 | 0.9 | 0.00 | 0.05 | 0.00 | 100 | 1021.2 |
| 20260902153010 | 62 | 200 | 0.0 | 0.0 | 0.00 | 0.05 | 0.00 | 100 | 1021.0 |
| 20260902151510 | 62 | 200 | 0.0 | 0.0 | 0.00 | 0.05 | 0.00 | 100 | 1021.3 |
| 20260902150009 | 62 | 252 | 0.0 | 0.0 | 0.00 | 0.05 | 0.00 | 100 | 1021.4 |
| 20260902144525 | 62 | 255 | 0.0 | 0.9 | 0.00 | 0.18 | 0.00 | 100 | 1021.7 |
| 20260902143006 | 62 | 191 | 0.0 | 0.9 | 0.00 | 0.18 | 0.00 | 100 | 1021.3 |
| 20260902141510 | 62 | 142 | 0.0 | 1.7 | 0.00 | 0.18 | 0.00 | 100 | 1020.9 |
| 20260902140010 | 61 | 149 | 0.0 | 0.9 | 0.00 | 0.18 | 0.00 | 100 | 1020.8 |
| 20260902134511 | 61 | 146 | 0.0 | 1.7 | 0.00 | 0.19 | 0.00 | 100 | 1021.1 |
| 20260902133004 | 61 | 163 | 0.0 | 0.9 | 0.00 | 0.19 | 0.00 | 100 | 1021.2 |
| 20260902131501 | 61 | 150 | 0.0 | 1.7 | 0.00 | 0.19 | 0.00 | 100 | 1020.9 |
| 20260902130001 | 62 | 154 | 0.0 | 0.0 | 0.00 | 0.19 | 0.00 | 100 | 1020.8 |
| 20260902124607 | 61 | 154 | 0.0 | 0.0 | 0.00 | 0.19 | 0.00 | 100 | 1020.6 |
| 20260902123102 | 61 | 154 | 0.0 | 0.9 | 0.00 | 0.19 | 0.00 | 100 | 1020.6 |
| 20260902121608 | 61 | 155 | 0.0 | 0.9 | 0.00 | 0.19 | 0.00 | 100 | 1020.5 |
| 20260902120056 | 61 | 154 | 0.0 | 0.9 | 0.00 | 0.19 | 0.00 | 100 | 1020.0 |
| 20260902114556 | 61 | 152 | 0.0 | 1.7 | 0.00 | 0.20 | 0.00 | 100 | 1020.3 |
| 20260902113105 | 61 | 191 | 0.0 | 0.0 | 0.00 | 0.20 | 0.00 | 100 | 1020.2 |
| 20260902111556 | 61 | 158 | 0.0 | 2.6 | 0.00 | 0.20 | 0.00 | 100 | 1020.1 |
| 20260902110056 | 61 | 158 | 0.0 | 1.7 | 0.00 | 0.20 | 0.00 | 100 | 1019.9 |
| 20260902104556 | 61 | 134 | 0.0 | 1.7 | 0.00 | 0.31 | 0.00 | 100 | 1020.0 |
| 20260902103050 | 61 | 150 | 0.0 | 0.9 | 0.00 | 0.31 | 0.00 | 100 | 1019.8 |
| 20260902101559 | 62 | 149 | 0.0 | 1.7 | 0.00 | 0.31 | 0.00 | 100 | 1020.0 |
| 20260902100105 | 62 | 147 | 0.0 | 1.7 | 0.00 | 0.31 | 0.00 | 100 | 1020.0 |
| 20260902094549 | 62 | 150 | 0.0 | 0.0 | 0.00 | 0.31 | 0.00 | 100 | 1019.8 |
| 20260902093050 | 62 | 151 | 0.0 | 0.9 | 0.00 | 0.31 | 0.00 | 100 | 1019.7 |
| 20260902091546 | 62 | 145 | 0.0 | 0.9 | 0.00 | 0.31 | 0.00 | 100 | 1019.5 |
| 20260902090045 | 62 | 152 | 0.0 | 0.0 | 0.00 | 0.31 | 0.00 | 100 | 1019.3 |
| 20260902084556 | 62 | 152 | 0.0 | 0.0 | 0.00 | 0.31 | 0.00 | 100 | 1019.3 |
| 20260902083045 | 62 | 152 | 0.0 | 0.0 | 0.00 | 0.31 | 0.00 | 100 | 1019.0 |
| 20260902081542 | 62 | 154 | 0.0 | 0.9 | 0.00 | 0.31 | 0.00 | 100 | 1018.9 |
| 20260902080040 | 62 | 149 | 0.0 | 0.9 | 0.00 | 0.31 | 0.00 | 100 | 1018.9 |
| 20260902074540 | 62 | 150 | 0.0 | 1.7 | 0.00 | 0.31 | 0.00 | 100 | 1018.8 |
| 20260902073049 | 62 | 149 | 0.0 | 0.9 | 0.00 | 0.31 | 0.00 | 100 | 1018.9 |
| 20260902071540 | 62 | 144 | 0.0 | 0.9 | 0.00 | 0.31 | 0.00 | 100 | 1018.6 |
| 20260902070039 | 62 | 147 | 0.0 | 0.9 | 0.00 | 0.31 | 0.00 | 100 | 1018.6 |
| 20260902064543 | 62 | 191 | 0.0 | 1.7 | 0.00 | 0.32 | 0.00 | 100 | 1018.6 |
| 20260902063041 | 62 | 141 | 0.0 | 1.7 | 0.00 | 0.32 | 0.00 | 99 | 1018.6 |
| 20260902061532 | 62 | 124 | 0.9 | 1.7 | 0.00 | 0.32 | 0.00 | 100 | 1018.6 |
| 20260902060034 | 62 | 165 | 0.9 | 2.6 | 0.00 | 0.32 | 0.00 | 100 | 1018.7 |
| 20260902054531 | 63 | 160 | 0.0 | 2.6 | 0.00 | 0.32 | 0.00 | 100 | 1018.9 |
| 20260902053029 | 63 | 143 | 0.0 | 1.7 | 0.00 | 0.32 | 0.00 | 100 | 1019.1 |
| 20260902051528 | 63 | 147 | 0.0 | 1.7 | 0.00 | 0.32 | 0.00 | 99 | 1018.9 |
| 20260902050025 | 63 | 149 | 0.0 | 1.7 | 0.00 | 0.32 | 0.00 | 99 | 1019.0 |
| 20260902044522 | 63 | 149 | 0.0 | 1.7 | 0.00 | 0.32 | 0.00 | 99 | 1018.7 |
| 20260902043022 | 64 | 172 | 0.0 | 1.7 | 0.00 | 0.32 | 0.00 | 99 | 1018.8 |
| 20260902041519 | 64 | 155 | 0.0 | 1.7 | 0.00 | 0.32 | 0.00 | 99 | 1018.7 |
| 20260902040016 | 64 | 165 | 0.0 | 3.5 | 0.00 | 0.32 | 0.00 | 99 | 1018.5 |
| 20260902034512 | 65 | 177 | 0.0 | 2.6 | 0.00 | 0.45 | 0.00 | 99 | 1018.4 |
| 20260902033010 | 66 | 146 | 0.0 | 0.9 | 0.00 | 0.45 | 0.00 | 99 | 1018.0 |
| 20260902031509 | 66 | 162 | 0.0 | 0.9 | 0.00 | 0.45 | 0.00 | 99 | 1018.0 |
| 20260902030011 | 67 | 162 | 0.0 | 2.6 | 0.00 | 0.45 | 0.00 | 99 | 1017.5 |
| 20260902024508 | 68 | 159 | 0.0 | 0.9 | 0.00 | 0.49 | 0.00 | 99 | 1017.6 |
| 20260902023009 | 69 | 160 | 0.0 | 0.0 | 0.00 | 0.49 | 0.00 | 99 | 1017.3 |
| 20260902021507 | 69 | 149 | 0.0 | 1.7 | 0.00 | 0.49 | 0.00 | 99 | 1017.2 |
| 20260902020009 | 70 | 148 | 0.0 | 0.9 | 0.00 | 0.49 | 0.00 | 99 | 1016.8 |
| 20260902014522 | 70 | 145 | 0.0 | 0.0 | 0.00 | 0.49 | 0.00 | 99 | 1016.7 |
| 20260902013008 | 70 | 145 | 0.0 | 0.0 | 0.00 | 0.49 | 0.00 | 99 | 1016.7 |
| 20260902011511 | 70 | 145 | 0.0 | 0.0 | 0.00 | 0.49 | 0.00 | 99 | 1016.8 |
| 20260902010005 | 70 | 146 | 0.0 | 0.9 | 0.00 | 0.49 | 0.00 | 99 | 1016.5 |
| 20260902004504 | 70 | 146 | 0.0 | 0.9 | 0.00 | 0.49 | 0.00 | 99 | 1016.3 |
| 20260902003003 | 70 | 143 | 0.9 | 1.7 | 0.00 | 0.49 | 0.00 | 98 | 1015.7 |
| 20260902001503 | 70 | 145 | 0.0 | 1.7 | 0.00 | 0.49 | 0.00 | 98 | 1016.0 |
| 20260902000003 | 70 | 138 | 0.0 | 0.0 | 0.00 | 0.49 | 0.00 | 98 | 1016.0 |
| 20260901234502 | 70 | 138 | 0.0 | 0.9 | 0.00 | 0.54 | 0.00 | 98 | 1015.7 |
| 20260901233003 | 70 | 138 | 0.0 | 0.9 | 0.00 | 0.54 | 0.00 | 97 | 1015.7 |
| 20260901231600 | 70 | 138 | 0.0 | 0.9 | 0.00 | 0.54 | 0.00 | 97 | 1015.7 |
| 20260901231503 | 70 | 138 | 0.0 | 0.9 | 0.00 | 0.54 | 0.00 | 97 | 1015.7 |
| 20260901230100 | 71 | 138 | 0.0 | 0.0 | 0.00 | 0.54 | 0.00 | 96 | 1015.7 |
| 20260901224606 | 72 | 138 | 0.9 | 1.7 | 0.00 | 0.54 | 0.00 | 96 | 1015.7 |
| 20260901223159 | 74 | 285 | 0.0 | 2.6 | 0.00 | 0.54 | 0.00 | 95 | 1016.2 |
| 20260901220047 | 77 | 40 | 0.0 | 0.0 | 0.04 | 0.55 | 0.33 | 94 | 1014.9 |
| 20260901214557 | 78 | 9 | 0.0 | 0.9 | 0.00 | 0.51 | 0.28 | 92 | 1014.6 |
| 20260901213047 | 79 | 20 | 0.0 | 0.0 | 0.00 | 0.51 | 0.28 | 91 | 1015.1 |
| 20260901211545 | 79 | 20 | 0.0 | 0.0 | 0.00 | 0.51 | 0.28 | 91 | 1014.9 |
| 20260901210056 | 79 | 20 | 0.0 | 0.0 | 0.00 | 0.51 | 0.28 | 89 | 1015.2 |
| 20260901204543 | 80 | 19 | 0.0 | 0.9 | 0.00 | 0.51 | 0.28 | 89 | 1014.9 |
| 20260901203044 | 79 | 356 | 0.0 | 0.9 | 0.00 | 0.51 | 0.28 | 90 | 1015.1 |
| 20260901201538 | 78 | 30 | 0.0 | 1.7 | 0.00 | 0.51 | 0.28 | 90 | 1015.2 |
| 20260901200038 | 78 | 314 | 0.0 | 1.7 | 0.00 | 0.51 | 0.28 | 91 | 1015.3 |